owner,sensor,date,latitude,longitude,air_temperature,qcFlag 
COMPS,ioos:station:USF.COMPS:C13:1,2014-07-01T00:05:00Z,26.0630,-83.0730,26.63,1111122 
COMPS,ioos:station:USF.COMPS:C13:1,2014-07-01T00:35:00Z,26.0630,-83.0730,26.45,1111122 
COMPS,ioos:station:USF.COMPS:C13:1,2014-07-01T04:05:00Z,26.0630,-83.0730,26.42,1111122 
COMPS,ioos:station:USF.COMPS:C13:1,2014-07-01T04:35:00Z,26.0630,-83.0730,26.28,1111122 
COMPS,ioos:station:USF.COMPS:C13:1,2014-07-01T05:05:00Z,26.0630,-83.0730,26.2,1111122 
COMPS,ioos:station:USF.COMPS:C13:1,2014-07-01T05:35:00Z,26.0630,-83.0730,26.29,1111122 
COMPS,ioos:station:USF.COMPS:C13:1,2014-07-01T06:05:00Z,26.0630,-83.0730,26.17,1111122 
COMPS,ioos:station:USF.COMPS:C13:1,2014-07-01T06:35:00Z,26.0630,-83.0730,26.59,1111122 
COMPS,ioos:station:USF.COMPS:C13:1,2014-07-01T07:05:00Z,26.0630,-83.0730,26.42,1111122 
COMPS,ioos:station:USF.COMPS:C13:1,2014-07-01T07:35:00Z,26.0630,-83.0730,26.36,1111122 
COMPS,ioos:station:USF.COMPS:C13:1,2014-07-01T08:05:00Z,26.0630,-83.0730,26.3,1111122 
COMPS,ioos:station:USF.COMPS:C13:1,2014-07-01T08:35:00Z,26.0630,-83.0730,26.73,1111122 
COMPS,ioos:station:USF.COMPS:C13:1,2014-07-01T09:05:00Z,26.0630,-83.0730,26.44,1111122 
COMPS,ioos:station:USF.COMPS:C13:1,2014-07-01T09:35:00Z,26.0630,-83.0730,26.62,1111122 
COMPS,ioos:station:USF.COMPS:C13:1,2014-07-01T10:05:00Z,26.0630,-83.0730,26.44,1111122 
COMPS,ioos:station:USF.COMPS:C13:1,2014-07-01T10:35:00Z,26.0630,-83.0730,26.29,1111122 
COMPS,ioos:station:USF.COMPS:C13:1,2014-07-01T11:05:00Z,26.0630,-83.0730,26.52,1111122 
COMPS,ioos:station:USF.COMPS:C13:1,2014-07-01T11:35:00Z,26.0630,-83.0730,26.24,1111122 
COMPS,ioos:station:USF.COMPS:C13:1,2014-07-01T12:05:00Z,26.0630,-83.0730,26.4,1111122 
COMPS,ioos:station:USF.COMPS:C13:1,2014-07-01T12:35:00Z,26.0630,-83.0730,26.44,1111122 
COMPS,ioos:station:USF.COMPS:C13:1,2014-07-01T13:05:00Z,26.0630,-83.0730,26.55,1111122 
COMPS,ioos:station:USF.COMPS:C13:1,2014-07-01T13:35:00Z,26.0630,-83.0730,26.54,1111122 
COMPS,ioos:station:USF.COMPS:C13:1,2014-07-01T14:05:00Z,26.0630,-83.0730,26.49,1111122 
COMPS,ioos:station:USF.COMPS:C13:1,2014-07-01T14:35:00Z,26.0630,-83.0730,26.31,1111122 
COMPS,ioos:station:USF.COMPS:C13:1,2014-07-01T15:05:00Z,26.0630,-83.0730,26.89,1111122 
COMPS,ioos:station:USF.COMPS:C13:1,2014-07-01T15:35:00Z,26.0630,-83.0730,26.98,1111122 
COMPS,ioos:station:USF.COMPS:C13:1,2014-07-01T16:05:00Z,26.0630,-83.0730,26.2,1111122 
COMPS,ioos:station:USF.COMPS:C13:1,2014-07-01T16:35:00Z,26.0630,-83.0730,26.49,1111122 
COMPS,ioos:station:USF.COMPS:C13:1,2014-07-01T17:05:00Z,26.0630,-83.0730,26.57,1111122 
COMPS,ioos:station:USF.COMPS:C13:1,2014-07-01T17:35:00Z,26.0630,-83.0730,26.57,1111122 
COMPS,ioos:station:USF.COMPS:C13:1,2014-07-01T18:05:00Z,26.0630,-83.0730,26.59,1111122 
COMPS,ioos:station:USF.COMPS:C13:1,2014-07-01T18:35:00Z,26.0630,-83.0730,26.64,1111122 
COMPS,ioos:station:USF.COMPS:C13:1,2014-07-01T19:05:00Z,26.0630,-83.0730,26.89,1111122 
COMPS,ioos:station:USF.COMPS:C13:1,2014-07-01T19:35:00Z,26.0630,-83.0730,26.92,1111122 
COMPS,ioos:station:USF.COMPS:C13:1,2014-07-01T20:05:00Z,26.0630,-83.0730,27.1,1111122 
COMPS,ioos:station:USF.COMPS:C13:1,2014-07-01T20:35:00Z,26.0630,-83.0730,26.9,1111122 
COMPS,ioos:station:USF.COMPS:C13:1,2014-07-01T21:05:00Z,26.0630,-83.0730,26.68,1111122 
COMPS,ioos:station:USF.COMPS:C13:1,2014-07-01T21:35:00Z,26.0630,-83.0730,26.98,1111122 
COMPS,ioos:station:USF.COMPS:C13:1,2014-07-01T22:05:00Z,26.0630,-83.0730,27.23,1111122 
COMPS,ioos:station:USF.COMPS:C13:1,2014-07-01T22:35:00Z,26.0630,-83.0730,27.01,1111122 
COMPS,ioos:station:USF.COMPS:C13:1,2014-07-01T23:05:00Z,26.0630,-83.0730,26.99,1111122 
COMPS,ioos:station:USF.COMPS:C13:1,2014-07-01T23:35:00Z,26.0630,-83.0730,26.75,1111122 
COMPS,ioos:station:USF.COMPS:C13:1,2014-07-02T00:05:00Z,26.0630,-83.0730,26.75,1111122 
COMPS,ioos:station:USF.COMPS:C13:1,2014-07-02T00:35:00Z,26.0630,-83.0730,26.66,1111122 
COMPS,ioos:station:USF.COMPS:C13:1,2014-07-02T01:05:00Z,26.0630,-83.0730,26.03,1111122 
COMPS,ioos:station:USF.COMPS:C13:1,2014-07-02T01:35:00Z,26.0630,-83.0730,26.11,1111122 
COMPS,ioos:station:USF.COMPS:C13:1,2014-07-02T02:05:00Z,26.0630,-83.0730,26.19,1111122 
COMPS,ioos:station:USF.COMPS:C13:1,2014-07-02T02:35:00Z,26.0630,-83.0730,26.38,1111122 
COMPS,ioos:station:USF.COMPS:C13:1,2014-07-02T03:05:00Z,26.0630,-83.0730,25.96,1111122 
COMPS,ioos:station:USF.COMPS:C13:1,2014-07-02T03:35:00Z,26.0630,-83.0730,26.25,1111122 
COMPS,ioos:station:USF.COMPS:C13:1,2014-07-02T05:05:00Z,26.0630,-83.0730,25.53,1111122 
COMPS,ioos:station:USF.COMPS:C13:1,2014-07-02T05:35:00Z,26.0630,-83.0730,25.5,1111122 
COMPS,ioos:station:USF.COMPS:C13:1,2014-07-02T06:05:00Z,26.0630,-83.0730,25.47,1111122 
COMPS,ioos:station:USF.COMPS:C13:1,2014-07-02T06:35:00Z,26.0630,-83.0730,25.55,1111122 
COMPS,ioos:station:USF.COMPS:C13:1,2014-07-02T07:05:00Z,26.0630,-83.0730,25.46,1111122 
COMPS,ioos:station:USF.COMPS:C13:1,2014-07-02T07:35:00Z,26.0630,-83.0730,25.37,1111122 
COMPS,ioos:station:USF.COMPS:C13:1,2014-07-02T08:05:00Z,26.0630,-83.0730,25.72,1111122 
COMPS,ioos:station:USF.COMPS:C13:1,2014-07-02T08:35:00Z,26.0630,-83.0730,25.86,1111122 
COMPS,ioos:station:USF.COMPS:C13:1,2014-07-02T11:05:00Z,26.0630,-83.0730,26.15,1111122 
COMPS,ioos:station:USF.COMPS:C13:1,2014-07-02T11:35:00Z,26.0630,-83.0730,26.08,1111122 
COMPS,ioos:station:USF.COMPS:C13:1,2014-07-02T12:05:00Z,26.0630,-83.0730,26.03,1111122 
COMPS,ioos:station:USF.COMPS:C13:1,2014-07-02T12:35:00Z,26.0630,-83.0730,26.41,1111122 
COMPS,ioos:station:USF.COMPS:C13:1,2014-07-02T13:05:00Z,26.0630,-83.0730,26.35,1111122 
COMPS,ioos:station:USF.COMPS:C13:1,2014-07-02T13:35:00Z,26.0630,-83.0730,26.49,1111122 
COMPS,ioos:station:USF.COMPS:C13:1,2014-07-02T14:05:00Z,26.0630,-83.0730,26.39,1111122 
COMPS,ioos:station:USF.COMPS:C13:1,2014-07-02T14:35:00Z,26.0630,-83.0730,26.29,1111122 
COMPS,ioos:station:USF.COMPS:C13:1,2014-07-02T15:05:00Z,26.0630,-83.0730,26.18,1111122 
COMPS,ioos:station:USF.COMPS:C13:1,2014-07-02T15:35:00Z,26.0630,-83.0730,26.23,1111122 
COMPS,ioos:station:USF.COMPS:C13:1,2014-07-02T16:05:00Z,26.0630,-83.0730,26.27,1111122 
COMPS,ioos:station:USF.COMPS:C13:1,2014-07-02T16:35:00Z,26.0630,-83.0730,26.25,1111122 
COMPS,ioos:station:USF.COMPS:C13:1,2014-07-02T17:05:00Z,26.0630,-83.0730,26.37,1111122 
COMPS,ioos:station:USF.COMPS:C13:1,2014-07-02T17:35:00Z,26.0630,-83.0730,26.38,1111122 
COMPS,ioos:station:USF.COMPS:C13:1,2014-07-02T18:05:00Z,26.0630,-83.0730,26.45,1111122 
COMPS,ioos:station:USF.COMPS:C13:1,2014-07-02T18:35:00Z,26.0630,-83.0730,26.63,1111122 
COMPS,ioos:station:USF.COMPS:C13:1,2014-07-02T19:05:00Z,26.0630,-83.0730,26.44,1111122 
COMPS,ioos:station:USF.COMPS:C13:1,2014-07-02T19:35:00Z,26.0630,-83.0730,25.09,1111122 
COMPS,ioos:station:USF.COMPS:C13:1,2014-07-02T20:05:00Z,26.0630,-83.0730,24.31,1111122 
COMPS,ioos:station:USF.COMPS:C13:1,2014-07-02T20:35:00Z,26.0630,-83.0730,25.05,1111122 
COMPS,ioos:station:USF.COMPS:C13:1,2014-07-02T21:05:00Z,26.0630,-83.0730,25.89,1111122 
COMPS,ioos:station:USF.COMPS:C13:1,2014-07-02T21:35:00Z,26.0630,-83.0730,25.71,1111122 
COMPS,ioos:station:USF.COMPS:C13:1,2014-07-02T22:05:00Z,26.0630,-83.0730,25.94,1111122 
COMPS,ioos:station:USF.COMPS:C13:1,2014-07-02T22:35:00Z,26.0630,-83.0730,25.94,1111122 
COMPS,ioos:station:USF.COMPS:C13:1,2014-07-02T23:05:00Z,26.0630,-83.0730,26.1,1111122 
COMPS,ioos:station:USF.COMPS:C13:1,2014-07-02T23:35:00Z,26.0630,-83.0730,26.11,1111122 
COMPS,ioos:station:USF.COMPS:C13:1,2014-07-03T00:05:00Z,26.0630,-83.0730,26.39,1111122 
COMPS,ioos:station:USF.COMPS:C13:1,2014-07-03T00:35:00Z,26.0630,-83.0730,26.41,1111122 
COMPS,ioos:station:USF.COMPS:C13:1,2014-07-03T01:05:00Z,26.0630,-83.0730,26.6,1111122 
COMPS,ioos:station:USF.COMPS:C13:1,2014-07-03T01:35:00Z,26.0630,-83.0730,26.4,1111122 
COMPS,ioos:station:USF.COMPS:C13:1,2014-07-03T02:05:00Z,26.0630,-83.0730,26.43,1111122 
COMPS,ioos:station:USF.COMPS:C13:1,2014-07-03T02:35:00Z,26.0630,-83.0730,26.61,1111122 
COMPS,ioos:station:USF.COMPS:C13:1,2014-07-03T04:05:00Z,26.0630,-83.0730,26.35,1111122 
COMPS,ioos:station:USF.COMPS:C13:1,2014-07-03T04:35:00Z,26.0630,-83.0730,26.3,1111122 
COMPS,ioos:station:USF.COMPS:C13:1,2014-07-03T05:05:00Z,26.0630,-83.0730,26.29,1111122 
COMPS,ioos:station:USF.COMPS:C13:1,2014-07-03T05:35:00Z,26.0630,-83.0730,26.16,1111122 
COMPS,ioos:station:USF.COMPS:C13:1,2014-07-03T06:05:00Z,26.0630,-83.0730,26.16,1111122 
COMPS,ioos:station:USF.COMPS:C13:1,2014-07-03T06:35:00Z,26.0630,-83.0730,26.16,1111122 
COMPS,ioos:station:USF.COMPS:C13:1,2014-07-03T07:05:00Z,26.0630,-83.0730,26.14,1111122 
COMPS,ioos:station:USF.COMPS:C13:1,2014-07-03T07:35:00Z,26.0630,-83.0730,26.06,1111122 
COMPS,ioos:station:USF.COMPS:C13:1,2014-07-03T08:05:00Z,26.0630,-83.0730,25.96,1111122 
COMPS,ioos:station:USF.COMPS:C13:1,2014-07-03T08:35:00Z,26.0630,-83.0730,25.99,1111122 
COMPS,ioos:station:USF.COMPS:C13:1,2014-07-03T09:05:00Z,26.0630,-83.0730,26.03,1111122 
COMPS,ioos:station:USF.COMPS:C13:1,2014-07-03T09:35:00Z,26.0630,-83.0730,26.15,1111122 
COMPS,ioos:station:USF.COMPS:C13:1,2014-07-03T10:05:00Z,26.0630,-83.0730,26.12,1111122 
COMPS,ioos:station:USF.COMPS:C13:1,2014-07-03T10:35:00Z,26.0630,-83.0730,25.6,1111122 
COMPS,ioos:station:USF.COMPS:C13:1,2014-07-03T11:05:00Z,26.0630,-83.0730,25.66,1111122 
COMPS,ioos:station:USF.COMPS:C13:1,2014-07-03T11:35:00Z,26.0630,-83.0730,25.66,1111122 
COMPS,ioos:station:USF.COMPS:C13:1,2014-07-03T12:05:00Z,26.0630,-83.0730,26.49,1111122 
COMPS,ioos:station:USF.COMPS:C13:1,2014-07-03T12:35:00Z,26.0630,-83.0730,26.34,1111122 
COMPS,ioos:station:USF.COMPS:C13:1,2014-07-03T13:05:00Z,26.0630,-83.0730,26.2,1111122 
COMPS,ioos:station:USF.COMPS:C13:1,2014-07-03T13:35:00Z,26.0630,-83.0730,26.1,1111122 
COMPS,ioos:station:USF.COMPS:C13:1,2014-07-03T14:05:00Z,26.0630,-83.0730,26.18,1111122 
COMPS,ioos:station:USF.COMPS:C13:1,2014-07-03T14:35:00Z,26.0630,-83.0730,26.13,1111122 
COMPS,ioos:station:USF.COMPS:C13:1,2014-07-03T15:05:00Z,26.0630,-83.0730,26.03,1111122 
COMPS,ioos:station:USF.COMPS:C13:1,2014-07-03T15:35:00Z,26.0630,-83.0730,26.06,1111122 
COMPS,ioos:station:USF.COMPS:C13:1,2014-07-03T16:05:00Z,26.0630,-83.0730,26.24,1111122 
COMPS,ioos:station:USF.COMPS:C13:1,2014-07-03T16:35:00Z,26.0630,-83.0730,26.3,1111122 
COMPS,ioos:station:USF.COMPS:C13:1,2014-07-03T17:05:00Z,26.0630,-83.0730,26.34,1111122 
COMPS,ioos:station:USF.COMPS:C13:1,2014-07-03T17:35:00Z,26.0630,-83.0730,26.4,1111122 
COMPS,ioos:station:USF.COMPS:C13:1,2014-07-03T18:05:00Z,26.0630,-83.0730,26.35,1111122 
COMPS,ioos:station:USF.COMPS:C13:1,2014-07-03T18:35:00Z,26.0630,-83.0730,26.43,1111122 
COMPS,ioos:station:USF.COMPS:C13:1,2014-07-03T19:05:00Z,26.0630,-83.0730,26.45,1111122 
COMPS,ioos:station:USF.COMPS:C13:1,2014-07-03T19:35:00Z,26.0630,-83.0730,26.48,1111122 
COMPS,ioos:station:USF.COMPS:C13:1,2014-07-03T20:05:00Z,26.0630,-83.0730,26.4,1111122 
COMPS,ioos:station:USF.COMPS:C13:1,2014-07-03T20:35:00Z,26.0630,-83.0730,26.41,1111122 
COMPS,ioos:station:USF.COMPS:C13:1,2014-07-03T21:05:00Z,26.0630,-83.0730,26.44,1111122 
COMPS,ioos:station:USF.COMPS:C13:1,2014-07-03T21:35:00Z,26.0630,-83.0730,26.45,1111122 
COMPS,ioos:station:USF.COMPS:C13:1,2014-07-03T22:05:00Z,26.0630,-83.0730,26.59,1111122 
COMPS,ioos:station:USF.COMPS:C13:1,2014-07-03T22:35:00Z,26.0630,-83.0730,26.51,1111122 
COMPS,ioos:station:USF.COMPS:C13:1,2014-07-03T23:05:00Z,26.0630,-83.0730,26.62,1111122 
COMPS,ioos:station:USF.COMPS:C13:1,2014-07-03T23:35:00Z,26.0630,-83.0730,26.58,1111122 
COMPS,ioos:station:USF.COMPS:C13:1,2014-07-04T00:05:00Z,26.0630,-83.0730,26.5,1111122 
COMPS,ioos:station:USF.COMPS:C13:1,2014-07-04T00:35:00Z,26.0630,-83.0730,26.45,1111122 
COMPS,ioos:station:USF.COMPS:C13:1,2014-07-04T01:05:00Z,26.0630,-83.0730,26.49,1111122 
COMPS,ioos:station:USF.COMPS:C13:1,2014-07-04T01:35:00Z,26.0630,-83.0730,26.52,1111122 
COMPS,ioos:station:USF.COMPS:C13:1,2014-07-04T02:05:00Z,26.0630,-83.0730,26.52,1111122 
COMPS,ioos:station:USF.COMPS:C13:1,2014-07-04T02:35:00Z,26.0630,-83.0730,26.43,1111122 
COMPS,ioos:station:USF.COMPS:C13:1,2014-07-04T03:05:00Z,26.0630,-83.0730,26.51,1111122 
COMPS,ioos:station:USF.COMPS:C13:1,2014-07-04T03:35:00Z,26.0630,-83.0730,26.42,1111122 
COMPS,ioos:station:USF.COMPS:C13:1,2014-07-04T04:05:00Z,26.0630,-83.0730,26.41,1111122 
COMPS,ioos:station:USF.COMPS:C13:1,2014-07-04T04:35:00Z,26.0630,-83.0730,26.33,1111122 
COMPS,ioos:station:USF.COMPS:C13:1,2014-07-04T05:05:00Z,26.0630,-83.0730,26.48,1111122 
COMPS,ioos:station:USF.COMPS:C13:1,2014-07-04T05:35:00Z,26.0630,-83.0730,26.39,1111122 
COMPS,ioos:station:USF.COMPS:C13:1,2014-07-04T06:05:00Z,26.0630,-83.0730,26.35,1111122 
COMPS,ioos:station:USF.COMPS:C13:1,2014-07-04T06:35:00Z,26.0630,-83.0730,26.35,1111122 
COMPS,ioos:station:USF.COMPS:C13:1,2014-07-04T07:05:00Z,26.0630,-83.0730,26.29,1111122 
COMPS,ioos:station:USF.COMPS:C13:1,2014-07-04T07:35:00Z,26.0630,-83.0730,26.28,1111122 
COMPS,ioos:station:USF.COMPS:C13:1,2014-07-04T08:05:00Z,26.0630,-83.0730,26.09,1111122 
COMPS,ioos:station:USF.COMPS:C13:1,2014-07-04T08:35:00Z,26.0630,-83.0730,26.07,1111122 
COMPS,ioos:station:USF.COMPS:C13:1,2014-07-04T09:05:00Z,26.0630,-83.0730,26.03,1111122 
COMPS,ioos:station:USF.COMPS:C13:1,2014-07-04T09:35:00Z,26.0630,-83.0730,26.05,1111122 
COMPS,ioos:station:USF.COMPS:C13:1,2014-07-04T10:05:00Z,26.0630,-83.0730,26.08,1111122 
COMPS,ioos:station:USF.COMPS:C13:1,2014-07-04T10:35:00Z,26.0630,-83.0730,26.06,1111122 
COMPS,ioos:station:USF.COMPS:C13:1,2014-07-04T11:05:00Z,26.0630,-83.0730,26.03,1111122 
COMPS,ioos:station:USF.COMPS:C13:1,2014-07-04T11:35:00Z,26.0630,-83.0730,26.29,1111122 
COMPS,ioos:station:USF.COMPS:C13:1,2014-07-04T12:05:00Z,26.0630,-83.0730,26.78,1111122 
COMPS,ioos:station:USF.COMPS:C13:1,2014-07-04T12:35:00Z,26.0630,-83.0730,26.65,1111122 
COMPS,ioos:station:USF.COMPS:C13:1,2014-07-04T13:05:00Z,26.0630,-83.0730,26.77,1111122 
COMPS,ioos:station:USF.COMPS:C13:1,2014-07-04T13:35:00Z,26.0630,-83.0730,26.58,1111122 
COMPS,ioos:station:USF.COMPS:C13:1,2014-07-04T14:05:00Z,26.0630,-83.0730,26.42,1111122 
COMPS,ioos:station:USF.COMPS:C13:1,2014-07-04T14:35:00Z,26.0630,-83.0730,26.54,1111122 
COMPS,ioos:station:USF.COMPS:C13:1,2014-07-04T15:05:00Z,26.0630,-83.0730,26.41,1111122 
COMPS,ioos:station:USF.COMPS:C13:1,2014-07-04T15:35:00Z,26.0630,-83.0730,26.5,1111122 
COMPS,ioos:station:USF.COMPS:C13:1,2014-07-04T16:05:00Z,26.0630,-83.0730,26.47,1111122 
COMPS,ioos:station:USF.COMPS:C13:1,2014-07-04T16:35:00Z,26.0630,-83.0730,26.41,1111122 
COMPS,ioos:station:USF.COMPS:C13:1,2014-07-04T17:05:00Z,26.0630,-83.0730,26.39,1111122 
COMPS,ioos:station:USF.COMPS:C13:1,2014-07-04T17:35:00Z,26.0630,-83.0730,26.51,1111122 
COMPS,ioos:station:USF.COMPS:C13:1,2014-07-04T18:05:00Z,26.0630,-83.0730,26.77,1111122 
COMPS,ioos:station:USF.COMPS:C13:1,2014-07-04T18:35:00Z,26.0630,-83.0730,26.53,1111122 
COMPS,ioos:station:USF.COMPS:C13:1,2014-07-04T19:05:00Z,26.0630,-83.0730,26.39,1111122 
COMPS,ioos:station:USF.COMPS:C13:1,2014-07-04T19:35:00Z,26.0630,-83.0730,26.46,1111122 
COMPS,ioos:station:USF.COMPS:C13:1,2014-07-04T21:05:00Z,26.0630,-83.0730,26.81,1111122 
COMPS,ioos:station:USF.COMPS:C13:1,2014-07-04T21:35:00Z,26.0630,-83.0730,26.83,1111122 
COMPS,ioos:station:USF.COMPS:C13:1,2014-07-04T22:05:00Z,26.0630,-83.0730,26.75,1111122 
COMPS,ioos:station:USF.COMPS:C13:1,2014-07-04T22:35:00Z,26.0630,-83.0730,26.78,1111122 
COMPS,ioos:station:USF.COMPS:C13:1,2014-07-04T23:05:00Z,26.0630,-83.0730,26.92,1111122 
COMPS,ioos:station:USF.COMPS:C13:1,2014-07-04T23:35:00Z,26.0630,-83.0730,26.99,1111122 
COMPS,ioos:station:USF.COMPS:C13:1,2014-07-05T00:05:00Z,26.0630,-83.0730,26.81,1111122 
COMPS,ioos:station:USF.COMPS:C13:1,2014-07-05T00:35:00Z,26.0630,-83.0730,26.59,1111122 
COMPS,ioos:station:USF.COMPS:C13:1,2014-07-05T01:05:00Z,26.0630,-83.0730,26.49,1111122 
COMPS,ioos:station:USF.COMPS:C13:1,2014-07-05T01:35:00Z,26.0630,-83.0730,26.47,1111122 
COMPS,ioos:station:USF.COMPS:C13:1,2014-07-05T02:05:00Z,26.0630,-83.0730,26.34,1111122 
COMPS,ioos:station:USF.COMPS:C13:1,2014-07-05T02:35:00Z,26.0630,-83.0730,26.21,1111122 
COMPS,ioos:station:USF.COMPS:C13:1,2014-07-05T03:05:00Z,26.0630,-83.0730,26.14,1111122 
COMPS,ioos:station:USF.COMPS:C13:1,2014-07-05T03:35:00Z,26.0630,-83.0730,26.17,1111122 
COMPS,ioos:station:USF.COMPS:C13:1,2014-07-05T04:05:00Z,26.0630,-83.0730,26.15,1111122 
COMPS,ioos:station:USF.COMPS:C13:1,2014-07-05T04:35:00Z,26.0630,-83.0730,26.13,1111122 
COMPS,ioos:station:USF.COMPS:C13:1,2014-07-05T05:05:00Z,26.0630,-83.0730,26.2,1111122 
COMPS,ioos:station:USF.COMPS:C13:1,2014-07-05T05:35:00Z,26.0630,-83.0730,26.17,1111122 
COMPS,ioos:station:USF.COMPS:C13:1,2014-07-05T06:05:00Z,26.0630,-83.0730,26.17,1111122 
COMPS,ioos:station:USF.COMPS:C13:1,2014-07-05T06:35:00Z,26.0630,-83.0730,26.07,1111122 
COMPS,ioos:station:USF.COMPS:C13:1,2014-07-05T07:05:00Z,26.0630,-83.0730,26.02,1111122 
COMPS,ioos:station:USF.COMPS:C13:1,2014-07-05T07:35:00Z,26.0630,-83.0730,25.98,1111122 
COMPS,ioos:station:USF.COMPS:C13:1,2014-07-05T08:05:00Z,26.0630,-83.0730,25.87,1111122 
COMPS,ioos:station:USF.COMPS:C13:1,2014-07-05T08:35:00Z,26.0630,-83.0730,25.85,1111122 
COMPS,ioos:station:USF.COMPS:C13:1,2014-07-05T09:05:00Z,26.0630,-83.0730,25.81,1111122 
COMPS,ioos:station:USF.COMPS:C13:1,2014-07-05T09:35:00Z,26.0630,-83.0730,25.87,1111122 
COMPS,ioos:station:USF.COMPS:C13:1,2014-07-05T10:05:00Z,26.0630,-83.0730,25.84,1111122 
COMPS,ioos:station:USF.COMPS:C13:1,2014-07-05T10:35:00Z,26.0630,-83.0730,25.81,1111122 
COMPS,ioos:station:USF.COMPS:C13:1,2014-07-05T11:05:00Z,26.0630,-83.0730,25.9,1111122 
COMPS,ioos:station:USF.COMPS:C13:1,2014-07-05T11:35:00Z,26.0630,-83.0730,25.94,1111122 
COMPS,ioos:station:USF.COMPS:C13:1,2014-07-05T12:05:00Z,26.0630,-83.0730,26.01,1111122 
COMPS,ioos:station:USF.COMPS:C13:1,2014-07-05T12:35:00Z,26.0630,-83.0730,26.03,1111122 
COMPS,ioos:station:USF.COMPS:C13:1,2014-07-05T13:05:00Z,26.0630,-83.0730,25.95,1111122 
COMPS,ioos:station:USF.COMPS:C13:1,2014-07-05T13:35:00Z,26.0630,-83.0730,26.01,1111122 
COMPS,ioos:station:USF.COMPS:C13:1,2014-07-05T14:05:00Z,26.0630,-83.0730,26.03,1111122 
COMPS,ioos:station:USF.COMPS:C13:1,2014-07-05T14:35:00Z,26.0630,-83.0730,26.02,1111122 
COMPS,ioos:station:USF.COMPS:C13:1,2014-07-05T15:05:00Z,26.0630,-83.0730,26.08,1111122 
COMPS,ioos:station:USF.COMPS:C13:1,2014-07-05T15:35:00Z,26.0630,-83.0730,26.14,1111122 
COMPS,ioos:station:USF.COMPS:C13:1,2014-07-05T16:05:00Z,26.0630,-83.0730,26.23,1111122 
COMPS,ioos:station:USF.COMPS:C13:1,2014-07-05T16:35:00Z,26.0630,-83.0730,26.34,1111122 
COMPS,ioos:station:USF.COMPS:C13:1,2014-07-05T17:05:00Z,26.0630,-83.0730,26.29,1111122 
COMPS,ioos:station:USF.COMPS:C13:1,2014-07-05T17:35:00Z,26.0630,-83.0730,26.11,1111122 
COMPS,ioos:station:USF.COMPS:C13:1,2014-07-05T18:05:00Z,26.0630,-83.0730,25.66,1111122 
COMPS,ioos:station:USF.COMPS:C13:1,2014-07-05T18:35:00Z,26.0630,-83.0730,25.72,1111122 
COMPS,ioos:station:USF.COMPS:C13:1,2014-07-05T19:05:00Z,26.0630,-83.0730,25.95,1111122 
COMPS,ioos:station:USF.COMPS:C13:1,2014-07-05T19:35:00Z,26.0630,-83.0730,26.13,1111122 
COMPS,ioos:station:USF.COMPS:C13:1,2014-07-05T20:05:00Z,26.0630,-83.0730,26.34,1111122 
COMPS,ioos:station:USF.COMPS:C13:1,2014-07-05T20:35:00Z,26.0630,-83.0730,26.64,1111122 
COMPS,ioos:station:USF.COMPS:C13:1,2014-07-05T21:05:00Z,26.0630,-83.0730,26.62,1111122 
COMPS,ioos:station:USF.COMPS:C13:1,2014-07-05T21:35:00Z,26.0630,-83.0730,26.68,1111122 
COMPS,ioos:station:USF.COMPS:C13:1,2014-07-05T22:05:00Z,26.0630,-83.0730,26.76,1111122 
COMPS,ioos:station:USF.COMPS:C13:1,2014-07-05T22:35:00Z,26.0630,-83.0730,26.61,1111122 
COMPS,ioos:station:USF.COMPS:C13:1,2014-07-05T23:05:00Z,26.0630,-83.0730,26.78,1111122 
COMPS,ioos:station:USF.COMPS:C13:1,2014-07-05T23:35:00Z,26.0630,-83.0730,26.89,1111122 
COMPS,ioos:station:USF.COMPS:C13:1,2014-07-06T00:05:00Z,26.0630,-83.0730,26.96,1111122 
COMPS,ioos:station:USF.COMPS:C13:1,2014-07-06T00:35:00Z,26.0630,-83.0730,26.61,1111122 
COMPS,ioos:station:USF.COMPS:C13:1,2014-07-06T01:05:00Z,26.0630,-83.0730,26.47,1111122 
COMPS,ioos:station:USF.COMPS:C13:1,2014-07-06T01:35:00Z,26.0630,-83.0730,26.48,1111122 
COMPS,ioos:station:USF.COMPS:C13:1,2014-07-06T02:05:00Z,26.0630,-83.0730,26.41,1111122 
COMPS,ioos:station:USF.COMPS:C13:1,2014-07-06T02:35:00Z,26.0630,-83.0730,26.6,1111122 
COMPS,ioos:station:USF.COMPS:C13:1,2014-07-06T03:05:00Z,26.0630,-83.0730,26.45,1111122 
COMPS,ioos:station:USF.COMPS:C13:1,2014-07-06T03:35:00Z,26.0630,-83.0730,26.44,1111122 
COMPS,ioos:station:USF.COMPS:C13:1,2014-07-06T04:05:00Z,26.0630,-83.0730,26.43,1111122 
COMPS,ioos:station:USF.COMPS:C13:1,2014-07-06T04:35:00Z,26.0630,-83.0730,26.35,1111122 
COMPS,ioos:station:USF.COMPS:C13:1,2014-07-06T05:05:00Z,26.0630,-83.0730,26.47,1111122 
COMPS,ioos:station:USF.COMPS:C13:1,2014-07-06T05:35:00Z,26.0630,-83.0730,26.02,1111122 
COMPS,ioos:station:USF.COMPS:C13:1,2014-07-06T06:05:00Z,26.0630,-83.0730,26.26,1111122 
COMPS,ioos:station:USF.COMPS:C13:1,2014-07-06T06:35:00Z,26.0630,-83.0730,26.3,1111122 
COMPS,ioos:station:USF.COMPS:C13:1,2014-07-06T07:05:00Z,26.0630,-83.0730,26.34,1111122 
COMPS,ioos:station:USF.COMPS:C13:1,2014-07-06T07:35:00Z,26.0630,-83.0730,26.26,1111122 
COMPS,ioos:station:USF.COMPS:C13:1,2014-07-06T08:05:00Z,26.0630,-83.0730,26.18,1111122 
COMPS,ioos:station:USF.COMPS:C13:1,2014-07-06T08:35:00Z,26.0630,-83.0730,26.2,1111122 
COMPS,ioos:station:USF.COMPS:C13:1,2014-07-06T09:05:00Z,26.0630,-83.0730,26.18,1111122 
COMPS,ioos:station:USF.COMPS:C13:1,2014-07-06T09:35:00Z,26.0630,-83.0730,26.2,1111122 
COMPS,ioos:station:USF.COMPS:C13:1,2014-07-06T10:05:00Z,26.0630,-83.0730,26.31,1111122 
COMPS,ioos:station:USF.COMPS:C13:1,2014-07-06T10:35:00Z,26.0630,-83.0730,26.25,1111122 
COMPS,ioos:station:USF.COMPS:C13:1,2014-07-06T11:05:00Z,26.0630,-83.0730,26.29,1111122 
COMPS,ioos:station:USF.COMPS:C13:1,2014-07-06T11:35:00Z,26.0630,-83.0730,26.66,1111122 
COMPS,ioos:station:USF.COMPS:C13:1,2014-07-06T12:05:00Z,26.0630,-83.0730,26.72,1111122 
COMPS,ioos:station:USF.COMPS:C13:1,2014-07-06T12:35:00Z,26.0630,-83.0730,25.93,1111122 
COMPS,ioos:station:USF.COMPS:C13:1,2014-07-06T13:05:00Z,26.0630,-83.0730,25.85,1111122 
COMPS,ioos:station:USF.COMPS:C13:1,2014-07-06T13:35:00Z,26.0630,-83.0730,25.26,1111122 
COMPS,ioos:station:USF.COMPS:C13:1,2014-07-06T14:05:00Z,26.0630,-83.0730,24.2,1111122 
COMPS,ioos:station:USF.COMPS:C13:1,2014-07-06T14:35:00Z,26.0630,-83.0730,25.18,1111122 
COMPS,ioos:station:USF.COMPS:C13:1,2014-07-06T15:05:00Z,26.0630,-83.0730,24.8,1111122 
COMPS,ioos:station:USF.COMPS:C13:1,2014-07-06T15:35:00Z,26.0630,-83.0730,25.3,1111122 
COMPS,ioos:station:USF.COMPS:C13:1,2014-07-06T16:05:00Z,26.0630,-83.0730,25.06,1111122 
COMPS,ioos:station:USF.COMPS:C13:1,2014-07-06T16:35:00Z,26.0630,-83.0730,25.56,1111122 
COMPS,ioos:station:USF.COMPS:C13:1,2014-07-06T17:05:00Z,26.0630,-83.0730,25.6,1111122 
COMPS,ioos:station:USF.COMPS:C13:1,2014-07-06T17:35:00Z,26.0630,-83.0730,25.66,1111122 
COMPS,ioos:station:USF.COMPS:C13:1,2014-07-06T18:05:00Z,26.0630,-83.0730,25.61,1111122 
COMPS,ioos:station:USF.COMPS:C13:1,2014-07-06T18:35:00Z,26.0630,-83.0730,25.8,1111122 
COMPS,ioos:station:USF.COMPS:C13:1,2014-07-06T19:05:00Z,26.0630,-83.0730,26.28,1111122 
COMPS,ioos:station:USF.COMPS:C13:1,2014-07-06T19:35:00Z,26.0630,-83.0730,26.63,1111122 
COMPS,ioos:station:USF.COMPS:C13:1,2014-07-06T20:05:00Z,26.0630,-83.0730,26.78,1111122 
COMPS,ioos:station:USF.COMPS:C13:1,2014-07-06T20:35:00Z,26.0630,-83.0730,27.06,1111122 
COMPS,ioos:station:USF.COMPS:C13:1,2014-07-06T21:05:00Z,26.0630,-83.0730,27.52,1111122 
COMPS,ioos:station:USF.COMPS:C13:1,2014-07-06T21:35:00Z,26.0630,-83.0730,27.49,1111122 
COMPS,ioos:station:USF.COMPS:C13:1,2014-07-06T22:05:00Z,26.0630,-83.0730,27.27,1111122 
COMPS,ioos:station:USF.COMPS:C13:1,2014-07-06T22:35:00Z,26.0630,-83.0730,27.07,1111122 
COMPS,ioos:station:USF.COMPS:C13:1,2014-07-06T23:05:00Z,26.0630,-83.0730,27.46,1111122 
COMPS,ioos:station:USF.COMPS:C13:1,2014-07-06T23:35:00Z,26.0630,-83.0730,27.06,1111122 